;"Netzverluste
�ber alle Spannungsebenen"
Arbeit;92.270.918
H�chstleistung;18.139
Zeitpunkt;05.12.2023 17:30
01.01.2023 00:00;6.883
01.01.2023 00:15;6.829
01.01.2023 00:30;6.808
01.01.2023 00:45;6.790
01.01.2023 01:00;6.730
01.01.2023 01:15;6.696
01.01.2023 01:30;6.642
01.01.2023 01:45;6.576
01.01.2023 02:00;6.482
01.01.2023 02:15;6.414
01.01.2023 02:30;6.336
01.01.2023 02:45;6.242
01.01.2023 03:00;6.202
01.01.2023 03:15;6.089
01.01.2023 03:30;6.079
01.01.2023 03:45;6.101
01.01.2023 04:00;6.065
01.01.2023 04:15;6.092
01.01.2023 04:30;6.057
01.01.2023 04:45;6.001
01.01.2023 05:00;6.015
01.01.2023 05:15;5.928
01.01.2023 05:30;5.990
01.01.2023 05:45;6.045
01.01.2023 06:00;5.981
01.01.2023 06:15;6.021
01.01.2023 06:30;5.994
01.01.2023 06:45;5.957
01.01.2023 07:00;6.052
01.01.2023 07:15;6.221
01.01.2023 07:30;6.268
01.01.2023 07:45;6.350
01.01.2023 08:00;6.397
01.01.2023 08:15;6.419
01.01.2023 08:30;6.582
01.01.2023 08:45;6.710
01.01.2023 09:00;6.870
01.01.2023 09:15;7.159
01.01.2023 09:30;7.312
01.01.2023 09:45;7.563
01.01.2023 10:00;7.775
01.01.2023 10:15;8.244
01.01.2023 10:30;8.633
01.01.2023 10:45;8.854
01.01.2023 11:00;9.117
01.01.2023 11:15;9.350
01.01.2023 11:30;9.703
01.01.2023 11:45;9.866
01.01.2023 12:00;9.965
01.01.2023 12:15;10.072
01.01.2023 12:30;10.196
01.01.2023 12:45;10.197
01.01.2023 13:00;10.054
01.01.2023 13:15;10.184
01.01.2023 13:30;10.045
01.01.2023 13:45;10.066
01.01.2023 14:00;9.967
01.01.2023 14:15;10.002
01.01.2023 14:30;10.038
01.01.2023 14:45;9.829
01.01.2023 15:00;10.027
01.01.2023 15:15;9.951
01.01.2023 15:30;10.087
01.01.2023 15:45;10.267
01.01.2023 16:00;10.531
01.01.2023 16:15;10.933
01.01.2023 16:30;11.228
01.01.2023 16:45;11.666
01.01.2023 17:00;12.091
01.01.2023 17:15;12.318
01.01.2023 17:30;12.313
01.01.2023 17:45;12.650
01.01.2023 18:00;12.532
01.01.2023 18:15;12.449
01.01.2023 18:30;12.320
01.01.2023 18:45;12.269
01.01.2023 19:00;12.276
01.01.2023 19:15;12.129
01.01.2023 19:30;11.753
01.01.2023 19:45;11.389
01.01.2023 20:00;11.243
01.01.2023 20:15;10.968
01.01.2023 20:30;10.687
01.01.2023 20:45;10.294
01.01.2023 21:00;10.234
01.01.2023 21:15;9.896
01.01.2023 21:30;9.806
01.01.2023 21:45;9.696
01.01.2023 22:00;9.544
01.01.2023 22:15;9.358
01.01.2023 22:30;8.813
01.01.2023 22:45;8.382
01.01.2023 23:00;7.910
01.01.2023 23:15;7.420
01.01.2023 23:30;7.191
01.01.2023 23:45;7.062
02.01.2023 00:00;6.822
02.01.2023 00:15;6.704
02.01.2023 00:30;6.457
02.01.2023 00:45;6.369
02.01.2023 01:00;6.336
02.01.2023 01:15;6.269
02.01.2023 01:30;6.054
02.01.2023 01:45;5.979
02.01.2023 02:00;6.041
02.01.2023 02:15;5.993
02.01.2023 02:30;5.957
02.01.2023 02:45;5.943
02.01.2023 03:00;5.924
02.01.2023 03:15;5.962
02.01.2023 03:30;5.918
02.01.2023 03:45;5.827
02.01.2023 04:00;5.970
02.01.2023 04:15;6.028
02.01.2023 04:30;6.105
02.01.2023 04:45;6.164
02.01.2023 05:00;6.524
02.01.2023 05:15;6.756
02.01.2023 05:30;7.449
02.01.2023 05:45;7.975
02.01.2023 06:00;8.415
02.01.2023 06:15;8.932
02.01.2023 06:30;8.897
02.01.2023 06:45;9.360
02.01.2023 07:00;9.971
02.01.2023 07:15;10.360
02.01.2023 07:30;10.513
02.01.2023 07:45;10.886
02.01.2023 08:00;11.244
02.01.2023 08:15;11.458
02.01.2023 08:30;11.655
02.01.2023 08:45;12.032
02.01.2023 09:00;12.089
02.01.2023 09:15;12.243
02.01.2023 09:30;12.315
02.01.2023 09:45;12.335
02.01.2023 10:00;12.648
02.01.2023 10:15;12.676
02.01.2023 10:30;12.856
02.01.2023 10:45;13.236
02.01.2023 11:00;13.248
02.01.2023 11:15;13.385
02.01.2023 11:30;13.308
02.01.2023 11:45;13.690
02.01.2023 12:00;13.854
02.01.2023 12:15;13.962
02.01.2023 12:30;13.982
02.01.2023 12:45;14.109
02.01.2023 13:00;14.316
02.01.2023 13:15;14.079
02.01.2023 13:30;14.015
02.01.2023 13:45;13.986
02.01.2023 14:00;13.938
02.01.2023 14:15;13.888
02.01.2023 14:30;13.819
02.01.2023 14:45;13.707
02.01.2023 15:00;13.728
02.01.2023 15:15;13.802
02.01.2023 15:30;13.836
02.01.2023 15:45;14.012
02.01.2023 16:00;14.425
02.01.2023 16:15;14.302
02.01.2023 16:30;14.663
02.01.2023 16:45;14.798
02.01.2023 17:00;15.102
02.01.2023 17:15;15.035
02.01.2023 17:30;14.852
02.01.2023 17:45;14.751
02.01.2023 18:00;14.719
02.01.2023 18:15;14.611
02.01.2023 18:30;14.252
02.01.2023 18:45;14.452
02.01.2023 19:00;14.026
02.01.2023 19:15;14.128
02.01.2023 19:30;13.984
02.01.2023 19:45;13.332
02.01.2023 20:00;13.209
02.01.2023 20:15;12.832
02.01.2023 20:30;12.529
02.01.2023 20:45;12.089
02.01.2023 21:00;11.359
02.01.2023 21:15;10.816
02.01.2023 21:30;10.749
02.01.2023 21:45;10.508
02.01.2023 22:00;10.324
02.01.2023 22:15;10.107
02.01.2023 22:30;9.898
02.01.2023 22:45;9.571
02.01.2023 23:00;9.145
02.01.2023 23:15;9.008
02.01.2023 23:30;8.861
02.01.2023 23:45;8.728
03.01.2023 00:00;8.399
03.01.2023 00:15;8.084
03.01.2023 00:30;7.941
03.01.2023 00:45;7.458
03.01.2023 01:00;6.918
03.01.2023 01:15;6.820
03.01.2023 01:30;6.476
03.01.2023 01:45;6.412
03.01.2023 02:00;6.340
03.01.2023 02:15;6.279
03.01.2023 02:30;6.222
03.01.2023 02:45;6.343
03.01.2023 03:00;6.246
03.01.2023 03:15;6.349
03.01.2023 03:30;6.295
03.01.2023 03:45;6.283
03.01.2023 04:00;6.451
03.01.2023 04:15;6.512
03.01.2023 04:30;6.841
03.01.2023 04:45;7.254
03.01.2023 05:00;7.530
03.01.2023 05:15;7.731
03.01.2023 05:30;7.969
03.01.2023 05:45;8.361
03.01.2023 06:00;8.860
03.01.2023 06:15;9.190
03.01.2023 06:30;9.380
03.01.2023 06:45;9.737
03.01.2023 07:00;10.282
03.01.2023 07:15;10.577
03.01.2023 07:30;10.920
03.01.2023 07:45;11.255
03.01.2023 08:00;11.957
03.01.2023 08:15;12.143
03.01.2023 08:30;12.232
03.01.2023 08:45;12.500
03.01.2023 09:00;12.541
03.01.2023 09:15;12.810
03.01.2023 09:30;12.797
03.01.2023 09:45;12.998
03.01.2023 10:00;13.136
03.01.2023 10:15;13.369
03.01.2023 10:30;13.512
03.01.2023 10:45;13.629
03.01.2023 11:00;13.679
03.01.2023 11:15;13.902
03.01.2023 11:30;14.002
03.01.2023 11:45;14.166
03.01.2023 12:00;14.187
03.01.2023 12:15;14.360
03.01.2023 12:30;14.268
03.01.2023 12:45;14.457
03.01.2023 13:00;14.254
03.01.2023 13:15;14.154
03.01.2023 13:30;13.909
03.01.2023 13:45;14.007
03.01.2023 14:00;13.879
03.01.2023 14:15;13.971
03.01.2023 14:30;13.823
03.01.2023 14:45;13.897
03.01.2023 15:00;13.935
03.01.2023 15:15;14.002
03.01.2023 15:30;14.106
03.01.2023 15:45;14.290
03.01.2023 16:00;14.257
03.01.2023 16:15;14.450
03.01.2023 16:30;14.653
03.01.2023 16:45;14.918
03.01.2023 17:00;15.195
03.01.2023 17:15;15.473
03.01.2023 17:30;15.395
03.01.2023 17:45;15.598
03.01.2023 18:00;15.449
03.01.2023 18:15;15.309
03.01.2023 18:30;15.208
03.01.2023 18:45;15.056
03.01.2023 19:00;14.812
03.01.2023 19:15;14.404
03.01.2023 19:30;13.895
03.01.2023 19:45;13.531
03.01.2023 20:00;13.003
03.01.2023 20:15;12.477
03.01.2023 20:30;12.121
03.01.2023 20:45;11.829
03.01.2023 21:00;11.483
03.01.2023 21:15;11.196
03.01.2023 21:30;10.762
03.01.2023 21:45;10.542
03.01.2023 22:00;10.163
03.01.2023 22:15;10.093
03.01.2023 22:30;9.785
03.01.2023 22:45;9.542
03.01.2023 23:00;9.064
03.01.2023 23:15;8.716
03.01.2023 23:30;8.628
03.01.2023 23:45;8.270
04.01.2023 00:00;7.933
04.01.2023 00:15;7.696
04.01.2023 00:30;7.607
04.01.2023 00:45;7.258
04.01.2023 01:00;7.190
04.01.2023 01:15;7.182
04.01.2023 01:30;7.069
04.01.2023 01:45;7.007
04.01.2023 02:00;6.968
04.01.2023 02:15;6.991
04.01.2023 02:30;6.867
04.01.2023 02:45;7.062
04.01.2023 03:00;6.930
04.01.2023 03:15;6.889
04.01.2023 03:30;6.924
04.01.2023 03:45;6.928
04.01.2023 04:00;7.040
04.01.2023 04:15;6.996
04.01.2023 04:30;7.079
04.01.2023 04:45;7.260
04.01.2023 05:00;7.495
04.01.2023 05:15;7.556
04.01.2023 05:30;7.752
04.01.2023 05:45;8.091
04.01.2023 06:00;8.425
04.01.2023 06:15;8.824
04.01.2023 06:30;9.228
04.01.2023 06:45;9.411
04.01.2023 07:00;10.015
04.01.2023 07:15;10.325
04.01.2023 07:30;10.744
04.01.2023 07:45;11.053
04.01.2023 08:00;11.489
04.01.2023 08:15;11.831
04.01.2023 08:30;12.205
04.01.2023 08:45;12.056
04.01.2023 09:00;12.328
04.01.2023 09:15;12.656
04.01.2023 09:30;12.619
04.01.2023 09:45;13.063
04.01.2023 10:00;13.140
04.01.2023 10:15;13.283
04.01.2023 10:30;13.633
04.01.2023 10:45;13.623
04.01.2023 11:00;13.820
04.01.2023 11:15;14.276
04.01.2023 11:30;14.081
04.01.2023 11:45;14.403
04.01.2023 12:00;14.538
04.01.2023 12:15;14.823
04.01.2023 12:30;14.811
04.01.2023 12:45;14.606
04.01.2023 13:00;14.685
04.01.2023 13:15;14.425
04.01.2023 13:30;14.456
04.01.2023 13:45;14.420
04.01.2023 14:00;14.010
04.01.2023 14:15;13.800
04.01.2023 14:30;14.016
04.01.2023 14:45;14.230
04.01.2023 15:00;14.089
04.01.2023 15:15;13.848
04.01.2023 15:30;13.740
04.01.2023 15:45;13.911
04.01.2023 16:00;13.995
04.01.2023 16:15;13.893
04.01.2023 16:30;14.329
04.01.2023 16:45;14.600
04.01.2023 17:00;14.717
04.01.2023 17:15;14.745
04.01.2023 17:30;14.718
04.01.2023 17:45;15.061
04.01.2023 18:00;14.951
04.01.2023 18:15;14.932
04.01.2023 18:30;15.039
04.01.2023 18:45;14.887
04.01.2023 19:00;14.555
04.01.2023 19:15;14.293
04.01.2023 19:30;13.872
04.01.2023 19:45;13.576
04.01.2023 20:00;13.068
04.01.2023 20:15;12.543
04.01.2023 20:30;12.001
04.01.2023 20:45;11.748
04.01.2023 21:00;11.179
04.01.2023 21:15;10.880
04.01.2023 21:30;10.664
04.01.2023 21:45;10.489
04.01.2023 22:00;10.285
04.01.2023 22:15;10.126
04.01.2023 22:30;9.785
04.01.2023 22:45;9.711
04.01.2023 23:00;9.263
04.01.2023 23:15;8.892
04.01.2023 23:30;8.619
04.01.2023 23:45;8.315
05.01.2023 00:00;8.163
05.01.2023 00:15;8.068
05.01.2023 00:30;7.960
05.01.2023 00:45;7.737
05.01.2023 01:00;7.566
05.01.2023 01:15;7.250
05.01.2023 01:30;7.311
05.01.2023 01:45;7.279
05.01.2023 02:00;7.172
05.01.2023 02:15;7.104
05.01.2023 02:30;7.157
05.01.2023 02:45;7.248
05.01.2023 03:00;7.066
05.01.2023 03:15;7.206
05.01.2023 03:30;7.120
05.01.2023 03:45;7.063
05.01.2023 04:00;7.414
05.01.2023 04:15;7.345
05.01.2023 04:30;7.361
05.01.2023 04:45;7.352
05.01.2023 05:00;7.576
05.01.2023 05:15;7.665
05.01.2023 05:30;7.925
05.01.2023 05:45;8.258
05.01.2023 06:00;8.602
05.01.2023 06:15;9.021
05.01.2023 06:30;9.441
05.01.2023 06:45;9.822
05.01.2023 07:00;10.339
05.01.2023 07:15;10.768
05.01.2023 07:30;11.197
05.01.2023 07:45;11.644
05.01.2023 08:00;12.070
05.01.2023 08:15;12.176
05.01.2023 08:30;12.423
05.01.2023 08:45;12.542
05.01.2023 09:00;12.927
05.01.2023 09:15;13.192
05.01.2023 09:30;13.390
05.01.2023 09:45;13.641
05.01.2023 10:00;13.688
05.01.2023 10:15;13.704
05.01.2023 10:30;13.578
05.01.2023 10:45;13.545
05.01.2023 11:00;13.708
05.01.2023 11:15;13.723
05.01.2023 11:30;13.893
05.01.2023 11:45;13.886
05.01.2023 12:00;14.079
05.01.2023 12:15;14.087
05.01.2023 12:30;14.024
05.01.2023 12:45;14.189
05.01.2023 13:00;13.934
05.01.2023 13:15;13.944
05.01.2023 13:30;13.854
05.01.2023 13:45;13.827
05.01.2023 14:00;13.735
05.01.2023 14:15;13.692
05.01.2023 14:30;13.718
05.01.2023 14:45;13.709
05.01.2023 15:00;13.759
05.01.2023 15:15;13.737
05.01.2023 15:30;13.639
05.01.2023 15:45;13.742
05.01.2023 16:00;13.894
05.01.2023 16:15;14.177
05.01.2023 16:30;14.579
05.01.2023 16:45;15.210
05.01.2023 17:00;15.435
05.01.2023 17:15;15.679
05.01.2023 17:30;15.723
05.01.2023 17:45;15.900
05.01.2023 18:00;15.918
05.01.2023 18:15;15.690
05.01.2023 18:30;15.828
05.01.2023 18:45;15.539
05.01.2023 19:00;15.226
05.01.2023 19:15;15.034
05.01.2023 19:30;14.808
05.01.2023 19:45;14.030
05.01.2023 20:00;13.740
05.01.2023 20:15;13.359
05.01.2023 20:30;12.753
05.01.2023 20:45;12.444
05.01.2023 21:00;11.925
05.01.2023 21:15;11.688
05.01.2023 21:30;11.418
05.01.2023 21:45;11.077
05.01.2023 22:00;10.931
05.01.2023 22:15;10.899
05.01.2023 22:30;10.211
05.01.2023 22:45;9.397
05.01.2023 23:00;8.889
05.01.2023 23:15;8.760
05.01.2023 23:30;8.431
05.01.2023 23:45;8.222
06.01.2023 00:00;7.900
06.01.2023 00:15;7.758
06.01.2023 00:30;7.613
06.01.2023 00:45;7.438
06.01.2023 01:00;7.297
06.01.2023 01:15;7.230
06.01.2023 01:30;7.191
06.01.2023 01:45;6.783
06.01.2023 02:00;6.605
06.01.2023 02:15;6.574
06.01.2023 02:30;6.611
06.01.2023 02:45;6.595
06.01.2023 03:00;6.546
06.01.2023 03:15;6.654
06.01.2023 03:30;6.526
06.01.2023 03:45;6.542
06.01.2023 04:00;6.916
06.01.2023 04:15;7.299
06.01.2023 04:30;7.520
06.01.2023 04:45;7.485
06.01.2023 05:00;7.799
06.01.2023 05:15;7.789
06.01.2023 05:30;8.125
06.01.2023 05:45;8.235
06.01.2023 06:00;8.856
06.01.2023 06:15;9.335
06.01.2023 06:30;9.661
06.01.2023 06:45;10.108
06.01.2023 07:00;10.440
06.01.2023 07:15;10.853
06.01.2023 07:30;11.136
06.01.2023 07:45;11.455
06.01.2023 08:00;11.883
06.01.2023 08:15;12.216
06.01.2023 08:30;12.373
06.01.2023 08:45;12.504
06.01.2023 09:00;12.664
06.01.2023 09:15;12.982
06.01.2023 09:30;13.324
06.01.2023 09:45;13.488
06.01.2023 10:00;13.456
06.01.2023 10:15;13.726
06.01.2023 10:30;13.789
06.01.2023 10:45;14.019
06.01.2023 11:00;13.763
06.01.2023 11:15;14.097
06.01.2023 11:30;14.227
06.01.2023 11:45;14.005
06.01.2023 12:00;14.031
06.01.2023 12:15;14.139
06.01.2023 12:30;14.221
06.01.2023 12:45;13.892
06.01.2023 13:00;13.766
06.01.2023 13:15;13.601
06.01.2023 13:30;13.667
06.01.2023 13:45;13.527
06.01.2023 14:00;13.345
06.01.2023 14:15;13.341
06.01.2023 14:30;13.359
06.01.2023 14:45;13.436
06.01.2023 15:00;13.197
06.01.2023 15:15;13.100
06.01.2023 15:30;13.151
06.01.2023 15:45;13.202
06.01.2023 16:00;13.646
06.01.2023 16:15;13.875
06.01.2023 16:30;14.111
06.01.2023 16:45;14.666
06.01.2023 17:00;15.009
06.01.2023 17:15;15.096
06.01.2023 17:30;15.213
06.01.2023 17:45;14.823
06.01.2023 18:00;15.123
06.01.2023 18:15;15.092
06.01.2023 18:30;14.945
06.01.2023 18:45;14.891
06.01.2023 19:00;14.465
06.01.2023 19:15;13.955
06.01.2023 19:30;13.813
06.01.2023 19:45;13.570
06.01.2023 20:00;13.087
06.01.2023 20:15;12.811
06.01.2023 20:30;12.214
06.01.2023 20:45;11.880
06.01.2023 21:00;11.337
06.01.2023 21:15;11.254
06.01.2023 21:30;10.891
06.01.2023 21:45;10.525
06.01.2023 22:00;10.421
06.01.2023 22:15;10.270
06.01.2023 22:30;9.802
06.01.2023 22:45;9.688
06.01.2023 23:00;9.377
06.01.2023 23:15;9.145
06.01.2023 23:30;8.712
06.01.2023 23:45;8.495
07.01.2023 00:00;8.301
07.01.2023 00:15;8.051
07.01.2023 00:30;7.856
07.01.2023 00:45;7.678
07.01.2023 01:00;7.219
07.01.2023 01:15;6.793
07.01.2023 01:30;6.440
07.01.2023 01:45;6.371
07.01.2023 02:00;6.254
07.01.2023 02:15;6.204
07.01.2023 02:30;6.160
07.01.2023 02:45;6.112
07.01.2023 03:00;6.087
07.01.2023 03:15;6.075
07.01.2023 03:30;6.058
07.01.2023 03:45;6.089
07.01.2023 04:00;6.077
07.01.2023 04:15;6.121
07.01.2023 04:30;6.115
07.01.2023 04:45;6.158
07.01.2023 05:00;6.456
07.01.2023 05:15;6.754
07.01.2023 05:30;7.171
07.01.2023 05:45;7.383
07.01.2023 06:00;7.518
07.01.2023 06:15;7.680
07.01.2023 06:30;7.739
07.01.2023 06:45;7.854
07.01.2023 07:00;8.218
07.01.2023 07:15;8.280
07.01.2023 07:30;8.527
07.01.2023 07:45;8.812
07.01.2023 08:00;9.085
07.01.2023 08:15;9.375
07.01.2023 08:30;9.611
07.01.2023 08:45;9.928
07.01.2023 09:00;10.264
07.01.2023 09:15;10.705
07.01.2023 09:30;10.907
07.01.2023 09:45;11.129
07.01.2023 10:00;11.445
07.01.2023 10:15;11.628
07.01.2023 10:30;11.575
07.01.2023 10:45;11.788
07.01.2023 11:00;12.112
07.01.2023 11:15;12.373
07.01.2023 11:30;12.277
07.01.2023 11:45;12.302
07.01.2023 12:00;12.645
07.01.2023 12:15;12.646
07.01.2023 12:30;12.527
07.01.2023 12:45;12.325
07.01.2023 13:00;12.253
07.01.2023 13:15;12.062
07.01.2023 13:30;11.993
07.01.2023 13:45;11.751
07.01.2023 14:00;11.997
07.01.2023 14:15;11.846
07.01.2023 14:30;12.026
07.01.2023 14:45;11.980
07.01.2023 15:00;11.750
07.01.2023 15:15;11.579
07.01.2023 15:30;11.461
07.01.2023 15:45;11.437
07.01.2023 16:00;11.541
07.01.2023 16:15;11.729
07.01.2023 16:30;12.158
07.01.2023 16:45;12.680
07.01.2023 17:00;13.069
07.01.2023 17:15;13.262
07.01.2023 17:30;13.442
07.01.2023 17:45;13.621
07.01.2023 18:00;13.577
07.01.2023 18:15;13.501
07.01.2023 18:30;13.562
07.01.2023 18:45;13.353
07.01.2023 19:00;13.236
07.01.2023 19:15;12.938
07.01.2023 19:30;12.683
07.01.2023 19:45;12.258
07.01.2023 20:00;11.830
07.01.2023 20:15;11.561
07.01.2023 20:30;11.270
07.01.2023 20:45;10.958
07.01.2023 21:00;10.716
07.01.2023 21:15;10.366
07.01.2023 21:30;10.186
07.01.2023 21:45;10.047
07.01.2023 22:00;9.842
07.01.2023 22:15;9.593
07.01.2023 22:30;9.293
07.01.2023 22:45;9.143
07.01.2023 23:00;8.777
07.01.2023 23:15;8.688
07.01.2023 23:30;8.180
07.01.2023 23:45;7.624
08.01.2023 00:00;7.111
08.01.2023 00:15;6.887
08.01.2023 00:30;6.708
08.01.2023 00:45;6.579
08.01.2023 01:00;6.435
08.01.2023 01:15;6.357
08.01.2023 01:30;6.244
08.01.2023 01:45;6.177
08.01.2023 02:00;6.111
08.01.2023 02:15;6.056
08.01.2023 02:30;6.034
08.01.2023 02:45;5.947
08.01.2023 03:00;5.933
08.01.2023 03:15;5.882
08.01.2023 03:30;5.897
08.01.2023 03:45;5.877
08.01.2023 04:00;5.860
08.01.2023 04:15;5.893
08.01.2023 04:30;5.875
08.01.2023 04:45;5.897
08.01.2023 05:00;5.917
08.01.2023 05:15;5.958
08.01.2023 05:30;5.974
08.01.2023 05:45;6.003
08.01.2023 06:00;5.995
08.01.2023 06:15;6.070
08.01.2023 06:30;6.222
08.01.2023 06:45;6.437
08.01.2023 07:00;6.901
08.01.2023 07:15;7.041
08.01.2023 07:30;7.242
08.01.2023 07:45;7.329
08.01.2023 08:00;7.653
08.01.2023 08:15;7.894
08.01.2023 08:30;8.051
08.01.2023 08:45;8.394
08.01.2023 09:00;8.708
08.01.2023 09:15;9.012
08.01.2023 09:30;9.472
08.01.2023 09:45;9.614
08.01.2023 10:00;10.445
08.01.2023 10:15;10.831
08.01.2023 10:30;10.991
08.01.2023 10:45;11.027
08.01.2023 11:00;11.237
08.01.2023 11:15;11.556
08.01.2023 11:30;11.593
08.01.2023 11:45;11.584
08.01.2023 12:00;11.721
08.01.2023 12:15;11.986
08.01.2023 12:30;11.897
08.01.2023 12:45;11.909
08.01.2023 13:00;11.755
08.01.2023 13:15;11.746
08.01.2023 13:30;11.614
08.01.2023 13:45;11.382
08.01.2023 14:00;11.465
08.01.2023 14:15;11.207
08.01.2023 14:30;11.345
08.01.2023 14:45;11.254
08.01.2023 15:00;11.288
08.01.2023 15:15;11.321
08.01.2023 15:30;11.457
08.01.2023 15:45;11.575
08.01.2023 16:00;11.800
08.01.2023 16:15;12.130
08.01.2023 16:30;12.650
08.01.2023 16:45;12.849
08.01.2023 17:00;13.474
08.01.2023 17:15;13.775
08.01.2023 17:30;13.971
08.01.2023 17:45;14.056
08.01.2023 18:00;14.339
08.01.2023 18:15;14.127
08.01.2023 18:30;14.148
08.01.2023 18:45;13.845
08.01.2023 19:00;13.606
08.01.2023 19:15;13.422
08.01.2023 19:30;13.004
08.01.2023 19:45;12.748
08.01.2023 20:00;12.390
08.01.2023 20:15;11.950
08.01.2023 20:30;11.565
08.01.2023 20:45;11.294
08.01.2023 21:00;10.876
08.01.2023 21:15;10.793
08.01.2023 21:30;10.384
08.01.2023 21:45;10.268
08.01.2023 22:00;10.009
08.01.2023 22:15;9.718
08.01.2023 22:30;9.437
08.01.2023 22:45;9.159
08.01.2023 23:00;8.803
08.01.2023 23:15;8.583
08.01.2023 23:30;7.899
08.01.2023 23:45;7.508
09.01.2023 00:00;6.892
09.01.2023 00:15;6.634
09.01.2023 00:30;6.500
09.01.2023 00:45;6.338
09.01.2023 01:00;6.240
09.01.2023 01:15;6.197
09.01.2023 01:30;6.179
09.01.2023 01:45;6.147
09.01.2023 02:00;6.047
09.01.2023 02:15;6.053
09.01.2023 02:30;6.078
09.01.2023 02:45;6.058
09.01.2023 03:00;6.024
09.01.2023 03:15;6.071
09.01.2023 03:30;6.101
09.01.2023 03:45;6.172
09.01.2023 04:00;6.157
09.01.2023 04:15;6.284
09.01.2023 04:30;6.383
09.01.2023 04:45;6.657
09.01.2023 05:00;7.108
09.01.2023 05:15;7.549
09.01.2023 05:30;8.437
09.01.2023 05:45;8.858
09.01.2023 06:00;9.668
09.01.2023 06:15;10.346
09.01.2023 06:30;10.995
09.01.2023 06:45;11.525
09.01.2023 07:00;12.146
09.01.2023 07:15;12.624
09.01.2023 07:30;12.862
09.01.2023 07:45;13.063
09.01.2023 08:00;13.396
09.01.2023 08:15;13.859
09.01.2023 08:30;13.937
09.01.2023 08:45;13.443
09.01.2023 09:00;13.325
09.01.2023 09:15;13.802
09.01.2023 09:30;13.811
09.01.2023 09:45;14.118
09.01.2023 10:00;14.029
09.01.2023 10:15;14.128
09.01.2023 10:30;14.206
09.01.2023 10:45;14.293
09.01.2023 11:00;14.162
09.01.2023 11:15;14.146
09.01.2023 11:30;14.291
09.01.2023 11:45;14.202
09.01.2023 12:00;14.405
09.01.2023 12:15;14.663
09.01.2023 12:30;14.867
09.01.2023 12:45;15.205
09.01.2023 13:00;14.824
09.01.2023 13:15;14.990
09.01.2023 13:30;14.671
09.01.2023 13:45;14.359
09.01.2023 14:00;14.400
09.01.2023 14:15;14.502
09.01.2023 14:30;14.539
09.01.2023 14:45;14.551
09.01.2023 15:00;14.591
09.01.2023 15:15;14.365
09.01.2023 15:30;14.555
09.01.2023 15:45;14.636
09.01.2023 16:00;14.746
09.01.2023 16:15;14.688
09.01.2023 16:30;15.031
09.01.2023 16:45;15.334
09.01.2023 17:00;15.789
09.01.2023 17:15;15.821
09.01.2023 17:30;15.957
09.01.2023 17:45;16.012
09.01.2023 18:00;15.993
09.01.2023 18:15;15.782
09.01.2023 18:30;15.793
09.01.2023 18:45;15.687
09.01.2023 19:00;15.514
09.01.2023 19:15;15.048
09.01.2023 19:30;14.481
09.01.2023 19:45;14.484
09.01.2023 20:00;13.862
09.01.2023 20:15;13.255
09.01.2023 20:30;12.824
09.01.2023 20:45;12.438
09.01.2023 21:00;12.038
09.01.2023 21:15;11.623
09.01.2023 21:30;11.350
09.01.2023 21:45;11.182
09.01.2023 22:00;10.756
09.01.2023 22:15;10.248
09.01.2023 22:30;10.167
09.01.2023 22:45;9.858
09.01.2023 23:00;9.375
09.01.2023 23:15;9.076
09.01.2023 23:30;8.774
09.01.2023 23:45;8.432
10.01.2023 00:00;8.096
10.01.2023 00:15;8.074
10.01.2023 00:30;7.773
10.01.2023 00:45;7.723
10.01.2023 01:00;7.570
10.01.2023 01:15;7.206
10.01.2023 01:30;6.828
10.01.2023 01:45;6.812
10.01.2023 02:00;6.504
10.01.2023 02:15;6.443
10.01.2023 02:30;6.457
10.01.2023 02:45;6.489
10.01.2023 03:00;6.673
10.01.2023 03:15;6.684
10.01.2023 03:30;6.987
10.01.2023 03:45;7.006
10.01.2023 04:00;7.121
10.01.2023 04:15;7.152
10.01.2023 04:30;7.434
10.01.2023 04:45;7.521
10.01.2023 05:00;7.742
10.01.2023 05:15;7.851
10.01.2023 05:30;8.136
10.01.2023 05:45;8.581
10.01.2023 06:00;9.245
10.01.2023 06:15;9.874
10.01.2023 06:30;10.479
10.01.2023 06:45;10.844
10.01.2023 07:00;11.779
10.01.2023 07:15;12.290
10.01.2023 07:30;12.598
10.01.2023 07:45;12.848
10.01.2023 08:00;13.291
10.01.2023 08:15;13.325
10.01.2023 08:30;13.397
10.01.2023 08:45;13.463
10.01.2023 09:00;13.491
10.01.2023 09:15;13.767
10.01.2023 09:30;13.765
10.01.2023 09:45;13.640
10.01.2023 10:00;13.440
10.01.2023 10:15;13.616
10.01.2023 10:30;13.992
10.01.2023 10:45;14.159
10.01.2023 11:00;14.105
10.01.2023 11:15;14.217
10.01.2023 11:30;14.100
10.01.2023 11:45;14.368
10.01.2023 12:00;14.697
10.01.2023 12:15;14.609
10.01.2023 12:30;14.512
10.01.2023 12:45;14.067
10.01.2023 13:00;14.138
10.01.2023 13:15;13.982
10.01.2023 13:30;14.174
10.01.2023 13:45;14.019
10.01.2023 14:00;13.997
10.01.2023 14:15;14.009
10.01.2023 14:30;13.957
10.01.2023 14:45;14.205
10.01.2023 15:00;13.925
10.01.2023 15:15;13.729
10.01.2023 15:30;13.822
10.01.2023 15:45;13.918
10.01.2023 16:00;13.867
10.01.2023 16:15;14.160
10.01.2023 16:30;14.438
10.01.2023 16:45;14.954
10.01.2023 17:00;15.440
10.01.2023 17:15;15.437
10.01.2023 17:30;15.781
10.01.2023 17:45;15.960
10.01.2023 18:00;15.875
10.01.2023 18:15;15.865
10.01.2023 18:30;15.538
10.01.2023 18:45;15.496
10.01.2023 19:00;15.090
10.01.2023 19:15;14.641
10.01.2023 19:30;14.247
10.01.2023 19:45;13.961
10.01.2023 20:00;13.510
10.01.2023 20:15;13.087
10.01.2023 20:30;12.559
10.01.2023 20:45;12.198
10.01.2023 21:00;11.716
10.01.2023 21:15;11.488
10.01.2023 21:30;10.898
10.01.2023 21:45;10.735
10.01.2023 22:00;10.311
10.01.2023 22:15;9.994
10.01.2023 22:30;9.614
10.01.2023 22:45;9.252
10.01.2023 23:00;8.939
10.01.2023 23:15;8.608
10.01.2023 23:30;8.441
10.01.2023 23:45;8.109
11.01.2023 00:00;7.829
11.01.2023 00:15;7.655
11.01.2023 00:30;7.622
11.01.2023 00:45;7.454
11.01.2023 01:00;7.484
11.01.2023 01:15;7.173
11.01.2023 01:30;6.975
11.01.2023 01:45;6.870
11.01.2023 02:00;6.798
11.01.2023 02:15;6.742
11.01.2023 02:30;6.726